Location: ???????????
(55.5758°N, 38.4970°E)
Time: 17:26:52
(UTC+00:00)

Meteor 1-24 Rocket - Pass Details

Date: 15 November 2025
Orbit: 789 x 925 km, 81.3° (Epoch: 14 December)

Event Time Altitude Azimuth Distance (km) Brightness Sun altitude
Exits shadow 02:41:16 34° 259° (W) 1,337 4.2 -19.3°
Maximum altitude 02:42:42 41° 294° (WNW) 1,194 4.0 -19.1°
Drops below altitude 10° 02:47:50 10° 5° (N) 2,410 6.1 -18.4°
Sets 02:50:21 0° 13° (NNE) 3,330 6.9 -18.0°
